Content
SEND FEEDBACK

Daily
Averages
Monthly
Summary
United States of America

DEDEDO, GUAM


Home > North America > United States > Guam
Elevation: 364 feet     Latitude: 13 33N     Longitude: 144 49E

WEATHER
 
SELECT A DAY
Number of Records: 215,568;   Date Range: 1/1/95 - 12/19/14
 
SHARE

PRINT THIS DATA

[ ← Previous Day ]
WEATHER ALMANAC - JANUARY 29, 2013
[ Next Day → ]
[ °C ]   °F
Weather ElementAverageHighLow
Temperature79.3 °F84 °F (10:54 am)73.9 °F (2:54 am)
Dewpoint69 °F71.1 °F (4:54 pm)66.9 °F (1:54 am)
Humidity71 %85 % (6:54 am)58 % (10:54 am)
Barometer29.94 in29.98 in (8:54 am)29.89 in (3:54 pm)
Wind Speed12.7 mph21.9 mph (11:54 am)
Wind Gust28.8 mph (11:54 am)
Weather ElementAverage
Visibility10 mi
Wind DirectionENE (70.9 °)

Weather ElementTotal
Precipitation0.01 in
Cooling Degree Days14 (Base 65)
Growing Degree Days29 (Base 50)
Averaged from 23 records on January 29, 2013
WEATHER CONDITIONS BREAKOUT
WIND DIRECTION BREAKOUT
WEATHER BY HOUR - JANUARY 29, 2013
[ °C ]   °F
Local TimeTemperatureDewpointHumidityBarometerVisibilityWind DirectionWind SpeedGust SpeedPrecipitationEventsConditions
1:54 AM75.0 °F66.9 °F76 %29.93 in10.0 miENE (60°)5.8 mphClear
2:54 AM73.9 °F66.9 °F79 %29.91 in10.0 miNE (50°)8.1 mphClear
3:54 AM75.9 °F68.0 °F76 %29.91 in10.0 miENE (70°)9.2 mphClear
4:54 AM75.0 °F68.0 °F79 %29.92 in10.0 miENE (60°)9.2 mphClear
5:54 AM75.0 °F68.0 °F79 %29.94 in10.0 miENE (60°)8.1 mphClear
6:54 AM73.9 °F69.1 °F85 %29.96 in10.0 miENE (60°)8.1 mphClear
7:54 AM77.0 °F69.1 °F76 %29.97 in10.0 miNE (50°)8.1 mphClear
8:54 AM81.0 °F69.1 °F67 %29.98 in10.0 miNE (50°)13.8 mphPartly Cloudy
9:54 AM82.9 °F68.0 °F60 %29.98 in10.0 miENE (60°)13.8 mphScattered Clouds
10:54 AM84.0 °F68.0 °F58 %29.97 in10.0 miENE (60°)15.0 mphMostly Cloudy
11:54 AM82.9 °F70.0 °F65 %29.94 in10.0 miENE (60°)21.9 mph28.8 mph0.00 inMostly Cloudy
12:54 PM82.9 °F70.0 °F65 %29.93 in10.0 miEast (80°)21.9 mph28.8 mphScattered Clouds
1:54 PM84.0 °F70.0 °F63 %29.91 in10.0 miEast (80°)18.4 mph26.5 mphPartly Cloudy
2:54 PM82.9 °F69.1 °F63 %29.90 in10.0 miEast (80°)18.4 mph25.3 mphPartly Cloudy
3:54 PM82.9 °F70.0 °F65 %29.89 in10.0 miEast (90°)16.1 mph24.2 mphScattered Clouds
4:54 PM81.0 °F71.1 °F72 %29.91 in10.0 miEast (90°)12.7 mph21.9 mph0.01 inScattered Clouds
5:54 PM80.1 °F69.1 °F69 %29.92 in10.0 miEast (80°)15.0 mphPartly Cloudy
6:54 PM80.1 °F70.0 °F71 %29.94 in10.0 miEast (80°)11.5 mphMostly Cloudy
7:54 PM80.1 °F70.0 °F71 %29.96 in10.0 miEast (80°)11.5 mphMostly Cloudy
8:54 PM79.0 °F69.1 °F72 %29.97 in10.0 miEast (80°)12.7 mphPartly Cloudy
9:54 PM79.0 °F70.0 °F74 %29.98 in10.0 miEast (80°)10.4 mphScattered Clouds
10:54 PM78.1 °F69.1 °F74 %29.97 in10.0 miEast (80°)12.7 mph19.6 mphClear
11:54 PM78.1 °F69.1 °F74 %29.97 in10.0 miEast (90°)9.2 mphPartly Cloudy
Hourly data recorded from PGUM, located miles away from Dededo, Guam







STORIES FROM OUR PARTNERS